Tracking 31027 objects as of 19-Jul-2025
HD Live streaming from Space Station
objects crossing your sky now

STARLINK-4374

Track STARLINK-4374 now!
10-day predictions


NORAD ID: 53652
Int'l Code: 2022-105E
Perigee: 568.4 km
Apogee: 571.8 km
Inclination: 97.7 °
Period: 95.9 minutes
Semi major axis: 6941 km
RCS: Unknown
Launch date: August 31, 2022
Source: United States (US)
Launch site: AIR FORCE WESTERN TEST RANGE (AFWTR)
Your satellite tracking list
STARLINK-3349
Track 1 satellite(s)




NASA's NSSDC Master Catalog

Two Line Element Set (TLE):
1 53652U 22105E   25199.62109806  .00000384  00000-0  34494-4 0  9992
2 53652  97.6591  80.7844 0002437  83.5999 276.5503 15.01264402158119
Source of the keplerian elements: AFSPC